| time (UTC) | temp F | wind direction | speed MPH | gust MPH | rain 1hr in | rain 24hr in | rain mn in | humidity % | barometer mb |
| 20260508021800 | 49 | 227 | 0.0 | 2.0 | 0.00 | 0.18 | 0.18 | 61 | 1015.9 |
| 20260508021255 | 49 | 182 | 1.0 | 2.0 | 0.00 | 0.18 | 0.18 | 60 | 1015.9 |
| 20260508020752 | 49 | 144 | 2.0 | 3.0 | 0.00 | 0.18 | 0.18 | 58 | 1016.0 |
| 20260508020250 | 48 | 165 | 2.0 | 3.0 | 0.00 | 0.18 | 0.18 | 59 | 1016.1 |
| 20260508015747 | 48 | 190 | 1.0 | 3.0 | 0.00 | 0.18 | 0.18 | 59 | 1016.0 |
| 20260508015244 | 48 | 145 | 0.0 | 2.0 | 0.00 | 0.18 | 0.18 | 59 | 1016.0 |
| 20260508014741 | 48 | 224 | 2.0 | 2.0 | 0.00 | 0.18 | 0.18 | 58 | 1016.0 |
| 20260508014238 | 48 | 214 | 1.0 | 3.0 | 0.00 | 0.18 | 0.18 | 59 | 1015.8 |
| 20260508013733 | 49 | 175 | 1.0 | 2.0 | 0.00 | 0.18 | 0.18 | 60 | 1015.7 |
| 20260508013230 | 49 | 162 | 2.0 | 3.0 | 0.00 | 0.18 | 0.18 | 57 | 1015.7 |
| 20260508012728 | 49 | 185 | 2.0 | 3.0 | 0.00 | 0.18 | 0.18 | 57 | 1015.9 |
| 20260508012224 | 49 | 160 | 2.0 | 3.0 | 0.00 | 0.18 | 0.18 | 56 | 1015.7 |
| 20260508011723 | 49 | 180 | 2.0 | 3.0 | 0.00 | 0.18 | 0.18 | 53 | 1015.8 |
| 20260508011220 | 50 | 198 | 2.0 | 3.0 | 0.00 | 0.18 | 0.18 | 52 | 1015.6 |
| 20260508010716 | 50 | 207 | 2.0 | 2.0 | 0.00 | 0.18 | 0.18 | 54 | 1015.4 |
| 20260508010214 | 51 | 159 | 2.0 | 3.0 | 0.00 | 0.18 | 0.18 | 54 | 1015.4 |
| 20260508005711 | 51 | 189 | 1.0 | 2.0 | 0.00 | 0.18 | 0.18 | 49 | 1015.3 |
| 20260508005208 | 51 | 182 | 2.0 | 3.0 | 0.00 | 0.18 | 0.18 | 50 | 1015.3 |
| 20260508004703 | 52 | 187 | 2.0 | 2.0 | 0.00 | 0.18 | 0.18 | 48 | 1015.3 |
| 20260508004200 | 52 | 153 | 0.0 | 2.0 | 0.00 | 0.18 | 0.18 | 46 | 1015.1 |
| 20260508003657 | 52 | 173 | 2.0 | 2.0 | 0.00 | 0.18 | 0.18 | 45 | 1014.9 |
| 20260508003154 | 53 | 184 | 1.0 | 2.0 | 0.00 | 0.18 | 0.18 | 45 | 1014.9 |
| 20260508002650 | 53 | 161 | 1.0 | 3.0 | 0.00 | 0.18 | 0.18 | 44 | 1014.8 |
| 20260508002148 | 53 | 168 | 2.0 | 2.0 | 0.00 | 0.18 | 0.18 | 46 | 1014.8 |
| 20260508001643 | 53 | 226 | 1.0 | 2.0 | 0.00 | 0.18 | 0.18 | 47 | 1014.5 |
| 20260508001139 | 54 | 184 | 2.0 | 3.0 | 0.00 | 0.18 | 0.18 | 44 | 1014.5 |
| 20260508000635 | 54 | 178 | 1.0 | 2.0 | 0.00 | 0.18 | 0.18 | 43 | 1014.6 |
| 20260508000133 | 55 | 204 | 0.0 | 2.0 | 0.00 | 0.18 | 0.18 | 42 | 1014.6 |
| 20260507235630 | 55 | 145 | 1.0 | 2.0 | 0.00 | 0.18 | 0.18 | 40 | 1014.6 |
| 20260507235127 | 55 | 207 | 0.0 | 2.0 | 0.00 | 0.18 | 0.18 | 41 | 1014.5 |
| 20260507234624 | 55 | 208 | 0.0 | 2.0 | 0.00 | 0.18 | 0.18 | 42 | 1014.4 |
| 20260507234120 | 56 | 142 | 0.0 | 3.0 | 0.00 | 0.18 | 0.18 | 45 | 1014.4 |
| 20260507233617 | 56 | 118 | 1.0 | 2.0 | 0.00 | 0.18 | 0.18 | 43 | 1014.4 |
| 20260507233116 | 56 | 240 | 1.0 | 5.0 | 0.00 | 0.18 | 0.18 | 39 | 1014.3 |
| 20260507232612 | 56 | 302 | 0.0 | 2.0 | 0.00 | 0.18 | 0.18 | 41 | 1014.2 |
| 20260507232109 | 56 | 221 | 1.0 | 2.0 | 0.00 | 0.18 | 0.18 | 40 | 1014.0 |
| 20260507231605 | 56 | 177 | 3.0 | 4.0 | 0.00 | 0.18 | 0.18 | 41 | 1014.3 |
| 20260507231102 | 57 | 219 | 2.0 | 6.0 | 0.00 | 0.18 | 0.18 | 40 | 1014.3 |
| 20260507230559 | 57 | 300 | 2.0 | 4.0 | 0.00 | 0.18 | 0.18 | 38 | 1014.0 |
| 20260507230055 | 57 | 50 | 1.0 | 2.0 | 0.00 | 0.18 | 0.18 | 39 | 1014.2 |
| 20260507225550 | 57 | 325 | 3.0 | 3.0 | 0.00 | 0.18 | 0.18 | 41 | 1014.1 |
| 20260507225047 | 57 | 236 | 3.0 | 3.0 | 0.00 | 0.18 | 0.18 | 43 | 1014.2 |
| 20260507224543 | 58 | 248 | 1.0 | 2.0 | 0.00 | 0.18 | 0.18 | 42 | 1014.2 |
| 20260507224040 | 58 | 234 | 0.0 | 2.0 | 0.00 | 0.18 | 0.18 | 40 | 1014.1 |
| 20260507223536 | 59 | 247 | 1.0 | 3.0 | 0.00 | 0.18 | 0.18 | 36 | 1014.0 |
| 20260507223033 | 59 | 204 | 2.0 | 4.0 | 0.00 | 0.18 | 0.18 | 38 | 1014.0 |
| 20260507222530 | 59 | 42 | 2.0 | 5.0 | 0.00 | 0.18 | 0.18 | 35 | 1013.9 |
| 20260507222026 | 59 | 234 | 3.0 | 5.0 | 0.00 | 0.18 | 0.18 | 35 | 1014.3 |
| 20260507221523 | 60 | 322 | 2.0 | 4.0 | 0.00 | 0.18 | 0.18 | 37 | 1014.1 |
| 20260507221020 | 60 | 254 | 2.0 | 4.0 | 0.00 | 0.18 | 0.18 | 36 | 1014.0 |
| 20260507220517 | 61 | 336 | 2.0 | 4.0 | 0.00 | 0.18 | 0.18 | 36 | 1014.1 |
| 20260507220015 | 62 | 326 | 2.0 | 3.0 | 0.00 | 0.18 | 0.18 | 34 | 1014.1 |
| 20260507215510 | 62 | 218 | 4.0 | 5.0 | 0.00 | 0.18 | 0.18 | 33 | 1014.1 |
| 20260507215009 | 61 | 213 | 2.0 | 4.0 | 0.00 | 0.18 | 0.18 | 34 | 1014.0 |
| 20260507214505 | 62 | 213 | 2.0 | 6.0 | 0.00 | 0.18 | 0.18 | 32 | 1013.7 |
| 20260507214001 | 62 | 209 | 1.0 | 5.0 | 0.00 | 0.18 | 0.18 | 33 | 1014.0 |
| 20260507213458 | 62 | 265 | 1.0 | 2.0 | 0.00 | 0.18 | 0.18 | 32 | 1013.9 |
| 20260507212954 | 62 | 205 | 3.0 | 3.0 | 0.00 | 0.18 | 0.18 | 35 | 1014.0 |
| 20260507212450 | 62 | 206 | 1.0 | 3.0 | 0.00 | 0.18 | 0.18 | 35 | 1013.8 |
| 20260507211948 | 63 | 11 | 2.0 | 3.0 | 0.00 | 0.18 | 0.18 | 36 | 1013.8 |
| 20260507211444 | 64 | 341 | 3.0 | 3.0 | 0.00 | 0.18 | 0.18 | 35 | 1013.6 |
| 20260507210941 | 63 | 243 | 2.0 | 3.0 | 0.00 | 0.18 | 0.18 | 34 | 1013.7 |
| 20260507210437 | 60 | 12 | 4.0 | 4.0 | 0.00 | 0.18 | 0.18 | 34 | 1013.7 |
| 20260507205934 | 60 | 184 | 1.0 | 2.0 | 0.00 | 0.18 | 0.18 | 40 | 1013.7 |
| 20260507205432 | 64 | 238 | 2.0 | 3.0 | 0.00 | 0.18 | 0.18 | 35 | 1013.6 |
| 20260507204928 | 65 | 314 | 2.0 | 3.0 | 0.00 | 0.18 | 0.18 | 34 | 1013.6 |
| 20260507204424 | 63 | 218 | 0.0 | 5.0 | 0.00 | 0.18 | 0.18 | 35 | 1013.6 |
| 20260507203922 | 63 | 226 | 3.0 | 8.0 | 0.00 | 0.18 | 0.18 | 32 | 1013.4 |
| 20260507203420 | 63 | 205 | 1.0 | 3.0 | 0.00 | 0.18 | 0.18 | 35 | 1013.7 |
| 20260507202916 | 63 | 230 | 4.0 | 4.0 | 0.00 | 0.18 | 0.18 | 38 | 1013.5 |
| 20260507202412 | 64 | 211 | 3.0 | 5.0 | 0.00 | 0.18 | 0.18 | 33 | 1013.6 |
| 20260507201908 | 65 | 239 | 2.0 | 5.0 | 0.00 | 0.18 | 0.18 | 34 | 1013.6 |
| 20260507201403 | 63 | 296 | 1.0 | 4.0 | 0.00 | 0.18 | 0.18 | 33 | 1013.6 |
| 20260507200900 | 63 | 316 | 3.0 | 7.0 | 0.00 | 0.18 | 0.18 | 33 | 1013.6 |
| 20260507200356 | 63 | 293 | 2.0 | 4.0 | 0.00 | 0.18 | 0.18 | 33 | 1013.7 |
| 20260507195852 | 64 | 211 | 2.0 | 4.0 | 0.00 | 0.18 | 0.18 | 36 | 1013.6 |
| 20260507195350 | 62 | 19 | 2.0 | 3.0 | 0.00 | 0.18 | 0.18 | 33 | 1013.7 |
| 20260507194842 | 62 | 22 | 2.0 | 5.0 | 0.00 | 0.18 | 0.18 | 33 | 1013.9 |
| 20260507194338 | 65 | 301 | 0.0 | 4.0 | 0.00 | 0.18 | 0.18 | 34 | 1014.0 |
| 20260507193834 | 62 | 356 | 4.0 | 8.0 | 0.00 | 0.18 | 0.18 | 34 | 1013.8 |
| 20260507193332 | 64 | 15 | 2.0 | 4.0 | 0.00 | 0.18 | 0.18 | 32 | 1013.8 |
| 20260507192827 | 64 | 264 | 2.0 | 5.0 | 0.00 | 0.18 | 0.18 | 36 | 1014.0 |
| 20260507192324 | 62 | 198 | 1.0 | 5.0 | 0.00 | 0.18 | 0.18 | 36 | 1014.0 |
| 20260507191820 | 65 | 5 | 1.0 | 4.0 | 0.00 | 0.18 | 0.18 | 35 | 1014.1 |
| 20260507191311 | 64 | 302 | 2.0 | 5.0 | 0.00 | 0.18 | 0.18 | 31 | 1014.2 |
| 20260507190808 | 64 | 261 | 2.0 | 6.0 | 0.00 | 0.18 | 0.18 | 33 | 1014.2 |
| 20260507190307 | 60 | 228 | 2.0 | 7.0 | 0.00 | 0.18 | 0.18 | 34 | 1014.2 |
| 20260507185805 | 62 | 4 | 2.0 | 6.0 | 0.00 | 0.18 | 0.18 | 37 | 1014.4 |
| 20260507185305 | 63 | 19 | 3.0 | 6.0 | 0.00 | 0.18 | 0.18 | 34 | 1014.6 |
| 20260507184758 | 62 | 0 | 3.0 | 5.0 | 0.00 | 0.18 | 0.18 | 38 | 1014.5 |
| 20260507184257 | 61 | 347 | 3.0 | 4.0 | 0.00 | 0.18 | 0.18 | 34 | 1014.6 |
| 20260507183753 | 62 | 7 | 5.0 | 5.0 | 0.00 | 0.18 | 0.18 | 33 | 1014.9 |
| 20260507183250 | 64 | 243 | 4.0 | 5.0 | 0.00 | 0.18 | 0.18 | 37 | 1014.6 |
| 20260507182748 | 64 | 322 | 2.0 | 4.0 | 0.00 | 0.18 | 0.18 | 34 | 1014.5 |
| 20260507182248 | 62 | 223 | 3.0 | 4.0 | 0.00 | 0.18 | 0.18 | 33 | 1014.7 |
| 20260507181745 | 61 | 12 | 2.0 | 5.0 | 0.00 | 0.18 | 0.18 | 34 | 1014.7 |
| 20260507181241 | 61 | 237 | 2.0 | 3.0 | 0.00 | 0.18 | 0.18 | 37 | 1014.7 |
| 20260507180737 | 62 | 213 | 3.0 | 6.0 | 0.00 | 0.18 | 0.18 | 34 | 1014.9 |
| 20260507180235 | 59 | 16 | 4.0 | 6.0 | 0.00 | 0.18 | 0.18 | 34 | 1014.9 |
| 20260507175730 | 62 | 226 | 4.0 | 5.0 | 0.00 | 0.18 | 0.18 | 36 | 1015.0 |
| 20260507175227 | 60 | 15 | 4.0 | 6.0 | 0.00 | 0.18 | 0.18 | 34 | 1015.0 |
| 20260507174725 | 58 | 6 | 2.0 | 4.0 | 0.00 | 0.18 | 0.18 | 35 | 1015.0 |
| 20260507174222 | 58 | 0 | 4.0 | 8.0 | 0.00 | 0.18 | 0.18 | 35 | 1015.1 |
| 20260507173720 | 59 | 6 | 5.0 | 7.0 | 0.00 | 0.18 | 0.18 | 36 | 1015.2 |
| 20260507173216 | 58 | 354 | 2.0 | 4.0 | 0.00 | 0.18 | 0.18 | 38 | 1015.2 |
| 20260507172713 | 58 | 34 | 2.0 | 6.0 | 0.00 | 0.18 | 0.18 | 35 | 1015.3 |
| 20260507172210 | 59 | 260 | 1.0 | 7.0 | 0.00 | 0.18 | 0.18 | 43 | 1015.6 |
| 20260507171704 | 60 | 209 | 3.0 | 6.0 | 0.00 | 0.18 | 0.18 | 37 | 1015.4 |
| 20260507171202 | 58 | 205 | 0.0 | 4.0 | 0.00 | 0.18 | 0.18 | 42 | 1015.4 |
| 20260507170659 | 59 | 346 | 1.0 | 5.0 | 0.00 | 0.18 | 0.18 | 35 | 1015.9 |
| 20260507170156 | 62 | 240 | 4.0 | 6.0 | 0.00 | 0.18 | 0.18 | 36 | 1015.8 |
| 20260507165651 | 57 | 266 | 2.0 | 6.0 | 0.00 | 0.18 | 0.18 | 38 | 1016.0 |
| 20260507165148 | 59 | 84 | 1.0 | 7.0 | 0.00 | 0.18 | 0.18 | 35 | 1016.0 |
| 20260507164643 | 60 | 243 | 0.0 | 6.0 | 0.00 | 0.18 | 0.18 | 39 | 1015.8 |
| 20260507164141 | 59 | 337 | 2.0 | 5.0 | 0.00 | 0.18 | 0.18 | 36 | 1015.9 |
| 20260507163638 | 61 | 234 | 4.0 | 6.0 | 0.00 | 0.18 | 0.18 | 39 | 1016.1 |
| 20260507163136 | 57 | 209 | 2.0 | 4.0 | 0.00 | 0.18 | 0.18 | 40 | 1016.1 |
| 20260507162631 | 57 | 340 | 3.0 | 6.0 | 0.00 | 0.18 | 0.18 | 36 | 1016.3 |
| 20260507162128 | 56 | 314 | 2.0 | 7.0 | 0.00 | 0.18 | 0.18 | 38 | 1016.2 |
| 20260507161624 | 56 | 9 | 5.0 | 5.0 | 0.00 | 0.18 | 0.18 | 37 | 1016.1 |
| 20260507161121 | 57 | 20 | 0.0 | 4.0 | 0.00 | 0.18 | 0.18 | 36 | 1016.3 |
| 20260507160617 | 57 | 161 | 2.0 | 4.0 | 0.00 | 0.18 | 0.18 | 42 | 1016.3 |
| 20260507160114 | 57 | 307 | 0.0 | 3.0 | 0.00 | 0.18 | 0.18 | 38 | 1016.5 |
| 20260507155609 | 57 | 291 | 1.0 | 3.0 | 0.00 | 0.18 | 0.18 | 37 | 1016.3 |
| 20260507155106 | 57 | 288 | 1.0 | 3.0 | 0.00 | 0.18 | 0.18 | 39 | 1016.4 |
| 20260507154603 | 56 | 240 | 3.0 | 6.0 | 0.00 | 0.18 | 0.18 | 39 | 1016.6 |
| 20260507154100 | 55 | 49 | 2.0 | 6.0 | 0.00 | 0.18 | 0.18 | 39 | 1016.8 |
| 20260507153557 | 55 | 341 | 3.0 | 6.0 | 0.00 | 0.18 | 0.18 | 40 | 1016.7 |
| 20260507153053 | 55 | 273 | 3.0 | 4.0 | 0.00 | 0.18 | 0.18 | 41 | 1016.6 |
| 20260507152549 | 56 | 300 | 2.0 | 4.0 | 0.00 | 0.18 | 0.18 | 47 | 1016.8 |
| 20260507152046 | 55 | 341 | 3.0 | 6.0 | 0.00 | 0.18 | 0.18 | 42 | 1016.9 |
| 20260507151542 | 55 | 349 | 2.0 | 4.0 | 0.00 | 0.18 | 0.18 | 39 | 1016.9 |
| 20260507151039 | 55 | 234 | 2.0 | 6.0 | 0.00 | 0.18 | 0.18 | 42 | 1016.8 |
| 20260507150536 | 54 | 296 | 2.0 | 6.0 | 0.00 | 0.18 | 0.18 | 41 | 1016.8 |
| 20260507150028 | 53 | 353 | 3.0 | 7.0 | 0.00 | 0.18 | 0.18 | 41 | 1016.8 |
| 20260507145527 | 53 | 356 | 3.0 | 5.0 | 0.00 | 0.18 | 0.18 | 47 | 1016.9 |
| 20260507145026 | 54 | 239 | 3.0 | 7.0 | 0.00 | 0.18 | 0.18 | 55 | 1016.8 |
| 20260507144522 | 53 | 226 | 1.0 | 4.0 | 0.00 | 0.18 | 0.18 | 49 | 1016.7 |
| 20260507144020 | 52 | 86 | 2.0 | 6.0 | 0.00 | 0.18 | 0.18 | 43 | 1016.8 |
| 20260507143517 | 52 | 120 | 1.0 | 5.0 | 0.00 | 0.18 | 0.18 | 49 | 1016.8 |
| 20260507143014 | 52 | 232 | 3.0 | 5.0 | 0.00 | 0.18 | 0.18 | 50 | 1016.7 |
| 20260507142509 | 52 | 350 | 6.0 | 6.0 | 0.00 | 0.18 | 0.18 | 52 | 1016.9 |
| 20260507142007 | 51 | 3 | 4.0 | 6.0 | 0.00 | 0.18 | 0.18 | 49 | 1016.9 |
| 20260507141502 | 52 | 262 | 2.0 | 3.0 | 0.00 | 0.18 | 0.18 | 54 | 1016.9 |
| 20260507140959 | 52 | 29 | 2.0 | 9.0 | 0.00 | 0.18 | 0.18 | 51 | 1016.9 |
| 20260507140456 | 51 | 214 | 0.0 | 3.0 | 0.00 | 0.18 | 0.18 | 54 | 1017.0 |
| 20260507135953 | 51 | 12 | 6.0 | 8.0 | 0.00 | 0.18 | 0.18 | 53 | 1016.8 |
| 20260507135450 | 50 | 306 | 0.0 | 7.0 | 0.00 | 0.18 | 0.18 | 56 | 1017.0 |
| 20260507134947 | 51 | 208 | 2.0 | 4.0 | 0.00 | 0.18 | 0.18 | 71 | 1016.8 |
| 20260507134444 | 50 | 228 | 2.0 | 4.0 | 0.00 | 0.18 | 0.18 | 72 | 1016.9 |
| 20260507133940 | 49 | 252 | 3.0 | 5.0 | 0.00 | 0.18 | 0.18 | 75 | 1016.9 |
| 20260507133436 | 50 | 286 | 0.0 | 2.0 | 0.00 | 0.18 | 0.18 | 81 | 1016.9 |
| 20260507132935 | 50 | 320 | 0.0 | 6.0 | 0.00 | 0.18 | 0.18 | 77 | 1016.7 |
| 20260507132430 | 50 | 190 | 4.0 | 4.0 | 0.00 | 0.18 | 0.18 | 82 | 1016.7 |
| 20260507131927 | 50 | 231 | 2.0 | 4.0 | 0.00 | 0.18 | 0.18 | 83 | 1016.9 |
| 20260507131424 | 50 | 300 | 2.0 | 4.0 | 0.00 | 0.18 | 0.18 | 84 | 1016.9 |
| 20260507130921 | 50 | 325 | 2.0 | 4.0 | 0.00 | 0.18 | 0.18 | 86 | 1016.9 |
| 20260507130418 | 50 | 351 | 1.0 | 3.0 | 0.00 | 0.18 | 0.18 | 84 | 1016.8 |
| 20260507125917 | 49 | 311 | 0.0 | 5.0 | 0.00 | 0.18 | 0.18 | 82 | 1016.6 |
| 20260507125414 | 49 | 10 | 1.0 | 5.0 | 0.00 | 0.18 | 0.18 | 84 | 1016.7 |
| 20260507124912 | 48 | 9 | 3.0 | 4.0 | 0.00 | 0.18 | 0.18 | 84 | 1016.6 |
| 20260507124407 | 48 | 111 | 0.0 | 5.0 | 0.00 | 0.18 | 0.18 | 86 | 1016.6 |
| 20260507123906 | 47 | 336 | 4.0 | 5.0 | 0.00 | 0.18 | 0.18 | 87 | 1016.7 |
| 20260507123403 | 47 | 108 | 2.0 | 8.0 | 0.00 | 0.18 | 0.18 | 87 | 1016.8 |
| 20260507122859 | 47 | 187 | 1.0 | 7.0 | 0.00 | 0.18 | 0.18 | 92 | 1016.8 |
| 20260507122355 | 47 | 209 | 2.0 | 10.0 | 0.00 | 0.18 | 0.18 | 92 | 1016.6 |
| 20260507121851 | 48 | 8 | 1.0 | 3.0 | 0.00 | 0.18 | 0.18 | 95 | 1016.8 |
| 20260507121346 | 48 | 240 | 1.0 | 3.0 | 0.00 | 0.18 | 0.18 | 95 | 1016.7 |
| 20260507120843 | 47 | 67 | 2.0 | 2.0 | 0.00 | 0.18 | 0.18 | 95 | 1016.7 |
| 20260507120340 | 47 | 270 | 3.0 | 4.0 | 0.00 | 0.18 | 0.18 | 95 | 1016.7 |
| 20260507115836 | 47 | 231 | 0.0 | 3.0 | 0.00 | 0.18 | 0.18 | 96 | 1016.5 |
| 20260507115332 | 46 | 282 | 0.0 | 3.0 | 0.00 | 0.18 | 0.18 | 96 | 1016.5 |
| 20260507114828 | 46 | 192 | 1.0 | 3.0 | 0.00 | 0.18 | 0.18 | 97 | 1016.4 |
| 20260507114325 | 46 | 267 | 3.0 | 4.0 | 0.00 | 0.18 | 0.18 | 97 | 1016.5 |
| 20260507113823 | 46 | 288 | 2.0 | 4.0 | 0.00 | 0.18 | 0.18 | 97 | 1016.6 |
| 20260507113319 | 46 | 285 | 2.0 | 3.0 | 0.00 | 0.18 | 0.18 | 98 | 1016.5 |
| 20260507112817 | 46 | 200 | 1.0 | 3.0 | 0.00 | 0.18 | 0.18 | 98 | 1016.4 |
| 20260507112314 | 47 | 235 | 2.0 | 3.0 | 0.00 | 0.18 | 0.18 | 98 | 1016.5 |
| 20260507111812 | 47 | 222 | 0.0 | 2.0 | 0.00 | 0.18 | 0.18 | 98 | 1016.5 |
| 20260507111308 | 47 | 254 | 0.0 | 2.0 | 0.00 | 0.18 | 0.18 | 98 | 1016.4 |
| 20260507110804 | 47 | 266 | 1.0 | 2.0 | 0.00 | 0.18 | 0.18 | 97 | 1016.2 |
| 20260507110300 | 47 | 242 | 1.0 | 3.0 | 0.00 | 0.18 | 0.18 | 98 | 1016.2 |
| 20260507105758 | 47 | 291 | 1.0 | 4.0 | 0.00 | 0.18 | 0.18 | 98 | 1016.1 |
| 20260507105254 | 47 | 223 | 2.0 | 4.0 | 0.00 | 0.18 | 0.18 | 99 | 1016.1 |
| 20260507104751 | 47 | 156 | 1.0 | 3.0 | 0.00 | 0.18 | 0.18 | 99 | 1016.0 |
| 20260507104248 | 47 | 178 | 1.0 | 4.0 | 0.00 | 0.18 | 0.18 | 99 | 1016.0 |
| 20260507103744 | 47 | 192 | 1.0 | 3.0 | 0.00 | 0.18 | 0.18 | 99 | 1015.9 |
| 20260507103240 | 47 | 236 | 2.0 | 4.0 | 0.00 | 0.18 | 0.18 | 99 | 1015.8 |
| 20260507102736 | 46 | 300 | 2.0 | 4.0 | 0.00 | 0.18 | 0.18 | 99 | 1015.7 |
| 20260507102233 | 47 | 268 | 0.0 | 3.0 | 0.00 | 0.18 | 0.18 | 99 | 1015.6 |
| 20260507101729 | 47 | 212 | 1.0 | 3.0 | 0.00 | 0.18 | 0.18 | 99 | 1015.4 |
| 20260507101225 | 47 | 302 | 0.0 | 3.0 | 0.00 | 0.18 | 0.18 | 99 | 1015.8 |
| 20260507100722 | 47 | 235 | 1.0 | 3.0 | 0.00 | 0.18 | 0.18 | 99 | 1015.6 |
| 20260507100220 | 47 | 280 | 1.0 | 4.0 | 0.00 | 0.18 | 0.18 | 99 | 1015.6 |
| 20260507095718 | 47 | 261 | 2.0 | 3.0 | 0.00 | 0.18 | 0.18 | 99 | 1015.4 |
| 20260507095214 | 47 | 147 | 1.0 | 3.0 | 0.00 | 0.18 | 0.18 | 99 | 1015.2 |
| 20260507094711 | 47 | 123 | 0.0 | 2.0 | 0.00 | 0.18 | 0.18 | 99 | 1015.2 |
| 20260507094208 | 47 | 233 | 3.0 | 3.0 | 0.00 | 0.18 | 0.18 | 99 | 1015.3 |
| 20260507093705 | 47 | 155 | 1.0 | 3.0 | 0.00 | 0.18 | 0.18 | 99 | 1015.0 |
| 20260507093204 | 47 | 115 | 2.0 | 3.0 | 0.00 | 0.18 | 0.18 | 99 | 1015.1 |
| 20260507092700 | 48 | 153 | 1.0 | 4.0 | 0.00 | 0.18 | 0.18 | 99 | 1015.1 |
| 20260507092157 | 47 | 325 | 2.0 | 3.0 | 0.02 | 0.18 | 0.18 | 99 | 1015.0 |
| 20260507091653 | 48 | 159 | 2.0 | 3.0 | 0.02 | 0.18 | 0.18 | 99 | 1015.1 |
| 20260507091150 | 48 | 267 | 0.0 | 2.0 | 0.00 | 0.17 | 0.17 | 99 | 1014.9 |
| 20260507090645 | 48 | 229 | 1.0 | 3.0 | 0.00 | 0.17 | 0.17 | 99 | 1015.0 |
| 20260507090143 | 48 | 67 | 2.0 | 2.0 | 0.00 | 0.17 | 0.17 | 99 | 1015.0 |
| 20260507085639 | 47 | 199 | 1.0 | 2.0 | 0.00 | 0.17 | 0.17 | 99 | 1015.4 |
| 20260507085136 | 48 | 247 | 2.0 | 2.0 | 0.00 | 0.17 | 0.17 | 99 | 1015.1 |
| 20260507084633 | 48 | 349 | 2.0 | 2.0 | 0.00 | 0.17 | 0.17 | 99 | 1015.1 |
| 20260507084130 | 48 | 215 | 2.0 | 3.0 | 0.02 | 0.17 | 0.17 | 99 | 1015.4 |
| 20260507083626 | 47 | 247 | 5.0 | 5.0 | 0.05 | 0.17 | 0.17 | 99 | 1014.9 |
| 20260507083123 | 47 | 350 | 2.0 | 4.0 | 0.05 | 0.17 | 0.17 | 99 | 1014.4 |
| 20260507082619 | 47 | 333 | 2.0 | 2.0 | 0.02 | 0.16 | 0.16 | 99 | 1015.0 |
| 20260507082116 | 47 | 309 | 2.0 | 4.0 | 0.00 | 0.16 | 0.16 | 99 | 1015.4 |
| 20260507081613 | 47 | 314 | 2.0 | 4.0 | 0.05 | 0.16 | 0.16 | 99 | 1015.2 |
| 20260507081109 | 48 | 299 | 1.0 | 2.0 | 0.05 | 0.15 | 0.15 | 99 | 1015.1 |
| 20260507080606 | 48 | 259 | 1.0 | 2.0 | 0.07 | 0.15 | 0.15 | 99 | 1015.3 |
| 20260507075557 | 48 | 287 | 1.0 | 3.0 | 0.05 | 0.14 | 0.14 | 99 | 1015.4 |
| 20260507075053 | 48 | 222 | 2.0 | 3.0 | 0.00 | 0.13 | 0.13 | 99 | 1015.8 |
| 20260507074550 | 48 | 303 | 1.0 | 2.0 | 0.02 | 0.13 | 0.13 | 99 | 1015.1 |
| 20260507074049 | 48 | 304 | 3.0 | 3.0 | 0.05 | 0.13 | 0.13 | 99 | 1015.4 |
| 20260507073544 | 48 | 308 | 2.0 | 3.0 | 0.05 | 0.13 | 0.13 | 99 | 1015.1 |
| 20260507073041 | 48 | 298 | 2.0 | 2.0 | 0.07 | 0.12 | 0.12 | 99 | 1015.3 |
| 20260507072539 | 48 | 219 | 0.0 | 3.0 | 0.07 | 0.11 | 0.11 | 99 | 1015.2 |
| 20260507072036 | 48 | 318 | 0.0 | 2.0 | 0.12 | 0.11 | 0.11 | 99 | 1015.3 |
| 20260507071533 | 48 | 252 | 3.0 | 3.0 | 0.07 | 0.10 | 0.10 | 99 | 1015.6 |
| 20260507071030 | 49 | 312 | 2.0 | 3.0 | 0.05 | 0.09 | 0.09 | 99 | 1015.1 |
| 20260507070527 | 48 | 244 | 3.0 | 4.0 | 0.12 | 0.09 | 0.09 | 99 | 1015.7 |
| 20260507070024 | 48 | 168 | 0.0 | 4.0 | 0.12 | 0.08 | 0.08 | 98 | 1014.8 |
| 20260507065520 | 48 | 301 | 2.0 | 4.0 | 0.07 | 0.07 | 0.07 | 98 | 1014.9 |
| 20260507065017 | 48 | 269 | 2.0 | 3.0 | 0.07 | 0.06 | 0.06 | 98 | 1014.8 |
| 20260507064515 | 49 | 9 | 0.0 | 2.0 | 0.12 | 0.06 | 0.06 | 98 | 1015.1 |
| 20260507064014 | 49 | 283 | 1.0 | 2.0 | 0.09 | 0.05 | 0.05 | 98 | 1015.2 |
| 20260507063510 | 49 | 1 | 1.0 | 3.0 | 0.07 | 0.04 | 0.04 | 97 | 1015.0 |
| 20260507063008 | 49 | 163 | 1.0 | 2.0 | 0.07 | 0.03 | 0.03 | 97 | 1014.9 |
| 20260507062504 | 49 | 288 | 1.0 | 2.0 | 0.07 | 0.03 | 0.03 | 97 | 1015.0 |
| 20260507062002 | 49 | 230 | 1.0 | 2.0 | 0.09 | 0.02 | 0.02 | 95 | 1015.1 |
| 20260507061459 | 49 | 243 | 0.0 | 2.0 | 0.07 | 0.02 | 0.02 | 95 | 1015.1 |
| 20260507060957 | 50 | 235 | 0.0 | 2.0 | 0.00 | 0.00 | 0.00 | 95 | 1014.9 |
| 20260507060454 | 50 | 357 | 0.0 | 2.0 | 0.02 | 0.00 | 0.00 | 93 | 1014.1 |
| 20260507055950 | 50 | 288 | 1.0 | 3.0 | 0.02 | 0.00 | 0.00 | 93 | 1014.6 |
| 20260507055446 | 50 | 332 | 2.0 | 4.0 | 0.00 | 0.00 | 0.00 | 90 | 1014.4 |
| 20260507054943 | 50 | 212 | 2.0 | 2.0 | 0.00 | 0.00 | 0.00 | 91 | 1014.3 |
| 20260507054439 | 50 | 233 | 1.0 | 4.0 | 0.00 | 0.00 | 0.00 | 90 | 1014.4 |
| 20260507053936 | 51 | 307 | 2.0 | 4.0 | 0.00 | 0.00 | 0.00 | 89 | 1014.7 |
| 20260507053434 | 51 | 213 | 2.0 | 4.0 | 0.00 | 0.00 | 0.00 | 90 | 1014.5 |
| 20260507052932 | 51 | 233 | 1.0 | 3.0 | 0.00 | 0.00 | 0.00 | 90 | 1014.6 |
| 20260507052429 | 51 | 213 | 1.0 | 2.0 | 0.00 | 0.00 | 0.00 | 90 | 1014.7 |
| 20260507051926 | 51 | 201 | 2.0 | 2.0 | 0.00 | 0.00 | 0.00 | 91 | 1014.7 |
| 20260507051424 | 51 | 189 | 1.0 | 3.0 | 0.00 | 0.00 | 0.00 | 90 | 1014.7 |
| 20260507050921 | 51 | 263 | 1.0 | 4.0 | 0.00 | 0.00 | 0.00 | 88 | 1014.5 |
| 20260507050417 | 51 | 132 | 0.0 | 4.0 | 0.00 | 0.00 | 0.00 | 91 | 1014.7 |
| 20260507045914 | 50 | 347 | 4.0 | 4.0 | 0.00 | 0.00 | 0.00 | 89 | 1014.8 |
| 20260507045410 | 51 | 183 | 2.0 | 3.0 | 0.00 | 0.00 | 0.00 | 92 | 1014.9 |
| 20260507044902 | 51 | 251 | 0.0 | 2.0 | 0.00 | 0.00 | 0.00 | 91 | 1014.8 |
| 20260507044358 | 51 | 17 | 0.0 | 2.0 | 0.00 | 0.00 | 0.00 | 92 | 1014.6 |
| 20260507043854 | 51 | 286 | 1.0 | 2.0 | 0.00 | 0.00 | 0.00 | 91 | 1014.9 |
| 20260507043351 | 51 | 274 | 1.0 | 3.0 | 0.00 | 0.00 | 0.00 | 92 | 1015.2 |
| 20260507042847 | 51 | 106 | 0.0 | 3.0 | 0.00 | 0.00 | 0.00 | 93 | 1015.1 |
| 20260507042343 | 51 | 211 | 3.0 | 3.0 | 0.00 | 0.00 | 0.00 | 93 | 1015.2 |
| 20260507041840 | 51 | 205 | 3.0 | 4.0 | 0.00 | 0.00 | 0.00 | 94 | 1015.2 |
| 20260507041337 | 52 | 334 | 1.0 | 2.0 | 0.00 | 0.00 | 0.00 | 95 | 1015.0 |
| 20260507040834 | 51 | 27 | 1.0 | 2.0 | 0.00 | 0.00 | 0.00 | 94 | 1015.1 |
| 20260507040330 | 52 | 159 | 0.0 | 3.0 | 0.00 | 0.00 | 0.00 | 94 | 1014.9 |
| 20260507035826 | 51 | 332 | 0.0 | 2.0 | 0.00 | 0.07 | 0.07 | 93 | 1014.6 |
| 20260507035322 | 52 | 97 | 1.0 | 3.0 | 0.00 | 0.07 | 0.07 | 93 | 1014.5 |
| 20260507034820 | 52 | 26 | 3.0 | 3.0 | 0.00 | 0.07 | 0.07 | 94 | 1014.7 |
| 20260507034316 | 52 | 91 | 3.0 | 4.0 | 0.00 | 0.07 | 0.07 | 94 | 1014.8 |
| 20260507033814 | 52 | 159 | 0.0 | 4.0 | 0.00 | 0.07 | 0.07 | 95 | 1014.7 |
| 20260507033312 | 53 | 118 | 0.0 | 3.0 | 0.00 | 0.07 | 0.07 | 96 | 1014.7 |
| 20260507032809 | 53 | 20 | 2.0 | 4.0 | 0.00 | 0.07 | 0.07 | 96 | 1014.8 |
| 20260507032306 | 53 | 28 | 4.0 | 4.0 | 0.00 | 0.07 | 0.07 | 97 | 1014.8 |
| 20260507031801 | 53 | 65 | 2.0 | 4.0 | 0.00 | 0.07 | 0.07 | 97 | 1014.8 |
| 20260507031258 | 53 | 43 | 2.0 | 3.0 | 0.00 | 0.07 | 0.07 | 97 | 1014.9 |
| 20260507030755 | 55 | 172 | 1.0 | 4.0 | 0.00 | 0.07 | 0.07 | 99 | 1014.9 |
| 20260507030252 | 55 | 17 | 1.0 | 4.0 | 0.00 | 0.07 | 0.07 | 99 | 1015.0 |
| 20260507025749 | 58 | 70 | 1.0 | 1.0 | 0.00 | 0.07 | 0.07 | 99 | 1014.7 |
| 20260507025246 | 58 | 280 | 0.0 | 2.0 | 0.00 | 0.07 | 0.07 | 99 | 1014.7 |
| 20260507024745 | 58 | 171 | 1.0 | 3.0 | 0.00 | 0.07 | 0.07 | 99 | 1014.7 |
| 20260507024241 | 58 | 131 | 2.0 | 4.0 | 0.00 | 0.07 | 0.07 | 99 | 1014.5 |
| 20260507023737 | 58 | 162 | 2.0 | 4.0 | 0.00 | 0.07 | 0.07 | 99 | 1014.7 |
| 20260507023234 | 58 | 169 | 3.0 | 3.0 | 0.00 | 0.07 | 0.07 | 99 | 1014.7 |
| 20260507022731 | 59 | 173 | 2.0 | 2.0 | 0.00 | 0.07 | 0.07 | 99 | 1014.6 |